This is the latest recevied weather packets stored in our database for station/object K3BAY-1. If no packets are shown the sender has not sent any weather packets the latest 10 day(s).
| Time | Temp. | Humidity | Pressure | Rain* | Wind** | Luminosity | Snow |
|---|---|---|---|---|---|---|---|
| 1777836084 | 17.78° C | 35% | 1015.9 hPa | 0 mm | - | 632 W/m² | - |
| 1777835781 | 18.89° C | 31% | 1015.9 hPa | 0 mm | - | 597 W/m² | - |
| 1777835478 | 16.67° C | 38% | 1015.9 hPa | 0 mm | - | 646 W/m² | - |
| 1777835175 | 17.22° C | 35% | 1015.9 hPa | 0 mm | - | 693 W/m² | - |
| 1777834872 | 16.11° C | 37% | 1015.6 hPa | 0 mm | - | 637 W/m² | - |
| 1777834569 | 16.67° C | 38% | 1015.6 hPa | 0 mm | - | 719 W/m² | - |
| 1777834268 | 16.67° C | 37% | 1015.6 hPa | 0 mm | - | 681 W/m² | - |
| 1777833964 | 16.11° C | 36% | 1015.9 hPa | 0 mm | - | 689 W/m² | - |
| 1777833661 | 16.11° C | 34% | 1015.9 hPa | 0 mm | - | 755 W/m² | - |
| 1777833358 | 16.11° C | 40% | 1015.9 hPa | 0 mm | - | 750 W/m² | - |
| 1777833055 | 15.56° C | 39% | 1015.9 hPa | 0 mm | - | 131 W/m² | - |
| 1777832753 | 15.56° C | 38% | 1015.9 hPa | 0 mm | - | 761 W/m² | - |
| 1777832451 | 16.67° C | 38% | 1015.9 hPa | 0 mm | - | 523 W/m² | - |
| 1777832148 | 16.67° C | 38% | 1015.6 hPa | 0 mm | - | 769 W/m² | - |
| 1777831844 | 16.11° C | 34% | 1015.3 hPa | 0 mm | - | 760 W/m² | - |
| 1777831541 | 15.56° C | 36% | 1014.9 hPa | 0 mm | - | 771 W/m² | - |
| 1777831239 | 15° C | 40% | 1014.6 hPa | 0 mm | - | 722 W/m² | - |
| 1777830936 | 15.56° C | 39% | 1014.9 hPa | 0 mm | - | 723 W/m² | - |
| 1777830633 | 15.56° C | 39% | 1014.6 hPa | 0 mm | - | 731 W/m² | - |
| 1777830330 | 14.44° C | 37% | 1014.6 hPa | 0 mm | - | 761 W/m² | - |
| 1777830026 | 15° C | 42% | 1014.6 hPa | 0 mm | - | 764 W/m² | - |
| 1777829721 | 16.11° C | 40% | 1014.9 hPa | 0 mm | - | 766 W/m² | - |
| 1777829418 | 16.11° C | 35% | 1014.6 hPa | 0 mm | - | 772 W/m² | - |
| 1777829116 | 15° C | 37% | 1014.9 hPa | 0 mm | - | 775 W/m² | - |
| 1777828813 | 15° C | 38% | 1014.9 hPa | 0 mm | - | 790 W/m² | - |
* Rain latest hour (hover to see other rain measurements)
** Current wind speed in m/s (hover to see current wind gust speed)